Вернуться в каталог

KUIPER-00040

АктивенСвязьLEO
NORAD 64501·PAYLOAD·🇺🇸 United States

Запущен Jun 23, 2025 с Cape Canaveral Space Force Station

Loading…

Ближайшие Пролёты (ближайшие 24 часа)

TLE

СвежийSource: CelesTrak SupGP

Эпоха: Sep 14, 2026, 19:04 UTC

1 64501C 25134B   26257.79509259 -.00002822  00000+0 -36941-3 0  2577
2 64501  51.8964 126.9552 0001175 100.3087 210.4396 14.79934501    13

Отслеживайте KUIPER-00040 в реальном времени с AllMySat

Download on the App Store